SCP
0 0 0 0 0 0 0 0 0 0 0 0 0 0 0 0 0 0 0 0 0 0 0 0 0 0 0 0 0 0 0 0 0 0 0 0 0 0 0 0 0 0 0 0
0 0 0 0 0 0 0 0 0 0 0 0 0 0 0 0 0 0 0 0 0 0 0 0 0 0 0 0 0 0 0 0 0 0 0 0 0 0 0 0 0 0 0 0
0 0 0 0 0 0 0 0 0 0 0 0 0 0 0 0 0 0 0 0 0 0 0 0 0 0 0 0 0 0 0 0 0 0 0 0 0 0 0 0 0 0 0 0
0 0 0 0 0 0 0 0 0 0 0 0 0 0 0 0 0 0 0 0 0 0 0 0 0 0 0 0 0 0 0 0 0 0 0 0 0 0 0 0 0 0 0 0
0 0 0 0 0 0 0 0 0 0 0 0 0 0 0 0 0 0 0 0 0 0 0 0 0 0 0 0 0 0 0 0 0 0 0 0 0 0 0 0 0 0 0 0
0 0 0 0 0 0 0 0 0 0 0 0 0 0 0 0 0 0 0 0 0 0 0 0 0 0 0 0 0 0 0 0 0 0 0 0 0 0 0 0 0 0 0 0
0 0 0 0 0 0 0 0 0 0 0 0 0 0 0 0 0 0 0 0 0 0 0 0 0 0 0 0 0 0 0 0 0 0 0 0 0 0 0 0 0 0 0 0
0 0 0 0 0 0 0 0 0 0 0 0 0 0 0 0 0 0 0 0 0 0 0 0 0 0 0 0 0 0 0 0 0 0 0 0 0 0 0 0 0 0 0 0
0 0 0 0 0 0 0 0 0 0 0 0 0 0 0 0 0 0 0 0 0 0 0 0 0 0 0 0 0 0 0 0 0 0 0 0 0 0 0 0 0 0 0 0
0 0 0 0 0 0 0 0 0 0 0 0 0 0 0 0 0 0 0 0 0 0 0 0 0 0 0 0 0 0 0 0 0 0 0 0 0 0 0 0 0 0 0 0
0 0 0 0 0 0 0 0 0 0 0 0 0 0 0 0 0 0 0 0 0 0 0 0 0 0 0 0 0 0 0 0 0 0 0 0 0 0 0 0 0 0 0 0
0 0 0 0 0 0 0 0 0 0 0 0 0 0 0 0 0 0 0 0 0 0 0 0 0 0 0 0 0 0 0 0 0 0 0 0 0 0 0 0 0 0 0 0
0 0 0 0 0 0 0 0 0 0 0 0 0 0 0 0 -0 0 0 0 0 0 0 0 0 0 0 0 0 0 0 0 0 0 0 0 0 0 0 0 0 0 0 0
0 0 0 0 0 0 0 0 0 0 0 0 0 0 0 0 0 0 0 0 0 0 0 0 0 0 0 0 0 0 0 0 0 0 0 0 0 0 0 0 0 0 0 0
0 0 0 0 0 0 0 0 0 0 0 0 0 0 0 0 0 0 0 0 0 0 0 0 0 0 0 0 0 0 0 0 0 0 0 0 0 0 0 0 0 0 0 0
0 0 0 0 0 0 0 0 0 0 0 0 0 0 0 0 0 0 0 0 0 0 0 0 0 0 0 0 0 0 0 0 0 0 0 0 0 0 0 0 0 0 0 0
0 0 0 0 0 0 0 0 0 0 0 0 0 0 0 0 0 0 0 0 0 0 0 0 0 0 0 0 0 0 0 0 0 0 0 0 0 0 0 0 0 0 0 0
0 0 0 0 0 0 0 0 0 0 0 0 0 0 0 0 0 0 0 0 0 0 0 0 0 0 0 0 0 0 0 0 0 0 0 0 0 0 0 0 0 0 0 0
0 0 0 0 0 0 0 0 0 0 0 0 0 0 0 0 0 0 0 0 0 0 0 0 0 0 0 0 0 0 0 0 0 0 0 0 0 0 0 0 0 0 0 0
0 0 0 0 0 0 0 0 0 0 0 0 0 0 0 0 0 0 0 0 0 0 0 0 0 0 0 0 0 0 0 0 0 0 0 0 0 0 0 0 0 0 0 0
0 0 0 0 0 0 0 0 0 0 0 0 0 0 0 0 0 0 0 0 0 0 0 0 0 0 0 0 0 0 0 0 0 0 0 0 0 0 0 0 0 0 0 0
0 0 0 0 0 0 0 0 0 0 0 0 0 0 0 0 0 0 0 0 0 0 0 0 0 0 0 0 0 0 0 0 0 0 0 0 0 0 0 0 0 0 0 0
0 0 0 0 0 0 0 0 0 0 0 0 0 0 0 0 0 0 0 0 0 0 0 0 0 0 0 0 0 0 0 0 0 0 0 0 0 0 0 0 0 0 0 0
0 0 0 0 0 0 0 0 0 0 0 0 0 0 0 0 0 0 0 0 0 0 0 0 0 0 0 0 0 0 0 0 0 0 0 0 0 0 0 0 0 0 0 0
0 0 0 0 0 0 0 0 0 0 0 0 0 0 0 0 0 0 0 0 0 0 0 0 0 0 0 0 0 0 0 0 0 0 0 0 0 0 0 0 0 0 0 0
0 0 0 0 0 0 0 0 0 0 0 0 0 0 0 0 0 0 0 0 0 0 0 0 0 0 0 0 0 0 0 0 0 0 0 0 0 0 0 0 0 0 0 0
Wind_Speed
11 12 16 16 16 11 8 9 11 9 3 6 12 17 17 15 14 16 16 15 15 15 12 10 10 10 10 11 13 14 15 14 12 9 9 8 7 6 5 4 5 5 5 4
11 20 18 13 12 11 11 12 13 9 4 6 12 18 19 17 17 16 16 16 15 14 12 12 12 11 12 13 13 14 15 15 14 11 9 6 6 5 4 4 5 5 5 4
23 13 13 13 12 14 15 15 14 12 7 7 10 15 13 10 11 12 13 14 14 14 15 14 14 13 13 13 14 12 15 15 14 13 8 7 6 5 5 5 5 5 5 5
21 12 12 16 17 16 15 12 12 11 10 8 5 11 11 10 11 11 10 10 11 12 13 13 14 14 14 13 12 13 14 14 14 13 12 13 9 8 7 6 6 6 6 6
16 16 15 18 17 16 10 5 7 8 10 12 10 11 11 8 11 9 6 6 7 9 11 13 14 14 13 12 12 12 13 13 13 13 14 13 10 8 7 7 8 7 6 6
11 9 14 15 10 12 8 6 4 4 7 13 11 12 11 6 7 8 7 6 5 6 9 11 12 12 12 11 11 12 13 13 13 13 13 13 12 11 11 10 9 7 5 5
13 9 7 7 10 10 12 9 6 8 9 9 4 9 11 9 8 10 12 11 7 5 8 11 14 14 14 14 13 13 14 14 13 13 13 13 13 13 13 11 10 8 6 5
20 16 16 12 14 13 16 16 11 7 7 4 6 10 9 8 9 9 10 9 6 5 8 11 13 14 14 15 15 15 15 14 14 13 12 11 11 9 8 10 8 8 6 6
19 15 11 13 9 14 13 15 13 10 6 8 9 8 9 9 8 6 5 5 4 4 8 11 12 14 14 15 15 15 15 14 14 13 12 11 11 10 9 9 8 6 6 5
13 13 9 10 6 8 11 11 8 9 8 10 10 10 8 8 6 5 5 5 3 3 7 10 11 13 13 13 14 14 14 14 14 13 12 9 11 10 10 9 9 8 7 7
14 12 9 11 17 18 13 14 11 10 10 8 8 7 6 7 5 6 6 5 3 3 6 9 10 12 12 12 13 14 14 14 13 13 12 11 11 10 10 9 9 8 7 7
16 12 10 11 6 10 17 18 18 14 12 10 9 7 3 5 5 6 6 5 2 2 5 8 10 11 12 13 14 14 14 14 13 13 12 12 11 10 10 9 9 8 8 7
16 12 11 8 7 7 14 17 20 17 12 13 14 10 3 5 6 6 6 5 3 3 5 8 10 12 13 14 14 14 14 14 13 13 13 12 12 11 11 10 9 8 8 7
16 13 16 17 10 14 15 17 18 19 15 17 20 18 12 11 11 10 9 8 6 4 6 8 10 12 13 14 14 15 15 14 14 13 13 13 13 12 11 10 9 9 8 8
12 15 16 13 7 13 15 19 22 24 23 19 18 19 19 17 16 14 12 9 8 7 7 9 11 11 12 13 14 14 14 14 14 14 14 13 12 11 10 9 9 8 8 7
13 13 15 13 11 12 12 17 21 24 23 24 22 21 17 17 15 14 13 11 10 10 9 9 10 11 13 14 14 14 14 14 14 14 13 12 11 10 10 9 9 8 8 7
15 12 13 13 11 8 16 20 21 20 20 19 22 22 17 15 14 14 13 11 11 10 8 8 10 11 11 12 13 14 13 13 14 13 12 12 11 11 10 9 8 8 8 7
17 15 8 8 11 14 11 8 17 20 20 20 18 17 16 16 13 11 11 11 10 8 7 7 7 8 8 9 10 11 11 12 12 12 12 11 11 10 9 9 8 8 7 7
15 14 8 8 11 11 6 7 12 16 17 19 21 20 15 7 6 9 9 9 8 6 4 4 5 6 7 9 10 11 11 11 11 12 11 11 10 10 9 9 8 7 6 7
9 12 9 8 10 12 9 8 9 9 11 12 16 18 13 8 7 7 3 5 5 3 3 4 5 7 8 9 10 11 11 11 11 10 10 9 9 9 8 8 6 5 6 7
14 12 15 12 11 10 5 8 13 11 8 5 11 14 12 12 9 2 5 4 4 4 5 6 6 6 7 9 10 10 10 10 9 8 8 8 8 7 7 6 5 5 5 6
18 14 15 13 12 11 9 13 14 7 3 4 6 8 10 10 5 5 5 5 6 6 6 7 7 7 7 8 9 9 8 8 8 8 8 7 7 5 4 5 5 5 6 7
15 14 10 13 12 3 14 12 9 4 6 6 6 6 8 8 8 7 6 7 6 6 7 7 8 8 7 7 8 9 8 8 8 8 7 6 5 4 4 5 5 5 6 6
7 4 7 8 8 7 11 8 6 7 6 5 5 7 9 8 9 8 8 7 7 7 7 7 9 9 8 7 7 7 8 8 8 7 6 5 4 4 4 4 4 5 6 6
10 11 9 10 5 5 9 13 11 9 6 5 5 6 9 9 9 9 8 9 8 7 7 7 8 8 8 8 7 7 8 8 7 6 4 4 3 4 4 5 5 6 7 7
10 11 13 11 10 10 10 11 12 10 10 10 8 7 7 9 9 9 8 8 8 8 8 8 8 8 8 8 7 7 7 6 6 4 4 3 3 3 4 5 6 8 11 13
Wind_Direction
185 204 212 212 217 235 239 243 254 261 243 253 268 276 278 278 265 259 257 250 239 233 222 201 195 191 189 187 185 184 182 182 178 175 175 174 173 166 160 160 163 169 168 171
192 219 219 216 213 218 227 243 258 269 241 256 281 281 278 273 265 261 261 254 244 232 210 196 192 188 188 185 183 182 182 181 182 181 176 174 159 153 145 149 153 158 160 159
209 215 203 197 198 212 227 240 253 265 277 248 283 279 266 264 261 261 258 256 250 234 216 199 191 189 187 185 183 181 180 180 181 173 157 140 131 135 152 159 154 156 156 154
222 201 186 200 212 217 233 232 246 258 270 276 280 292 284 278 277 267 262 253 246 231 219 203 191 187 187 183 178 178 176 177 175 171 172 171 175 175 176 166 157 153 155 153
211 198 193 206 212 210 229 207 220 244 259 271 250 266 278 274 272 279 280 271 254 234 217 204 195 187 182 174 173 174 172 174 174 179 180 181 182 171 154 154 156 157 155 156
211 197 211 218 209 202 160 136 147 213 247 258 250 248 274 255 265 292 301 302 276 237 214 202 189 179 173 170 171 171 172 173 175 180 181 184 176 164 158 164 164 165 161 162
201 197 196 186 163 169 186 201 221 225 221 245 192 236 258 266 270 285 295 302 300 241 206 192 182 179 175 174 173 174 174 173 176 179 182 182 176 171 172 172 173 172 171 174
199 204 194 191 194 183 196 208 220 239 247 238 192 239 258 279 285 282 281 287 285 234 202 193 188 184 179 177 177 178 178 175 175 178 179 177 172 173 174 177 175 179 179 176
198 203 183 192 195 186 186 212 231 255 270 267 245 247 275 272 271 279 289 289 275 226 200 194 190 188 183 181 182 182 179 177 177 178 174 173 172 173 171 172 174 175 173 168
195 192 173 175 168 203 210 186 185 215 235 245 248 246 247 252 270 306 319 324 308 209 198 194 192 190 187 185 183 184 183 180 178 177 175 173 174 173 169 170 175 176 174 175
194 181 161 177 198 189 182 192 203 212 231 243 252 237 223 245 274 298 317 328 311 211 196 194 193 190 187 185 184 185 185 181 178 179 176 174 173 172 172 176 179 178 179 183
193 194 186 194 196 222 206 204 202 211 215 229 255 256 194 238 263 276 293 309 303 215 196 194 191 188 187 188 188 188 188 186 183 180 178 177 173 173 177 181 181 182 186 191
176 190 183 181 198 195 212 216 216 225 237 229 235 246 175 226 250 256 268 285 282 224 196 193 192 193 193 193 192 192 191 190 184 180 179 177 177 179 184 184 182 185 190 195
178 194 205 209 200 185 200 207 212 216 228 235 236 247 245 252 262 271 275 278 278 249 212 202 200 200 198 196 196 195 194 190 185 182 183 184 185 185 186 184 184 189 194 200
188 207 214 225 200 183 198 204 207 216 227 239 246 247 251 255 261 268 275 277 272 254 227 212 208 204 199 198 198 197 195 190 185 185 187 189 185 182 182 184 187 191 198 207
194 206 204 209 199 197 209 212 211 220 229 240 251 257 257 261 265 265 264 263 259 252 236 220 212 208 203 200 198 195 194 189 186 188 189 184 180 180 184 187 189 194 203 211
187 186 191 206 192 200 232 222 218 221 226 233 242 249 255 255 253 254 257 256 252 252 240 221 213 209 205 200 196 194 190 183 186 188 186 181 180 182 186 187 192 200 209 217
184 188 192 179 174 219 236 211 218 226 232 231 240 250 251 252 259 261 256 253 250 245 235 220 209 202 196 190 188 185 180 179 183 185 183 181 181 184 185 191 200 208 216 224
193 182 178 183 205 233 234 206 200 211 235 231 233 242 247 247 260 256 241 234 239 240 228 206 188 180 173 173 172 170 172 175 181 184 182 180 181 183 187 197 206 213 222 234
195 193 186 188 207 225 220 183 177 189 241 232 222 232 232 196 231 246 192 190 198 190 165 153 150 152 157 160 162 164 167 174 182 181 178 176 180 184 191 201 210 219 229 242
181 194 203 201 217 236 197 146 155 194 231 197 205 217 208 202 223 166 137 146 149 141 137 141 143 146 150 154 158 161 166 176 173 166 165 169 177 185 193 202 212 224 235 248
181 187 200 204 215 221 159 158 189 210 142 171 189 198 198 201 191 162 160 157 154 145 143 145 141 136 142 153 157 159 164 158 153 154 158 165 174 175 188 203 219 232 243 255
197 194 189 200 213 175 167 190 202 174 179 186 184 182 179 181 187 179 176 170 163 156 150 150 143 136 141 153 159 156 150 148 149 153 159 164 171 180 196 215 230 242 247 254
201 192 186 198 213 197 195 206 207 204 202 192 183 172 174 181 180 177 173 170 166 161 157 153 149 146 146 152 154 146 143 148 152 157 161 168 182 197 211 224 234 242 248 255
175 176 194 211 205 200 218 217 214 208 205 194 186 187 188 179 180 180 177 175 169 161 158 160 158 153 149 149 146 144 148 152 156 161 168 182 200 218 234 240 244 249 252 256
182 183 192 208 195 193 205 206 202 198 203 199 188 186 191 190 184 176 175 169 164 161 158 159 158 153 150 150 147 148 152 159 161 170 185 200 219 235 248 259 263 245 251 263